Regional Weather Roundup
Issued by NWS

Home | Current Version | Previous Version | Graphics & Text | Print | Product List | Glossary Off
Versions: 1 2 3 4 5 6 7 8 9 10 11 12 13 14 15 16 17 18 19 20 21 22 23 24 25 26 27 28 29 30 31 32 33 34 35 36 37 38 39 40 41 42 43 44 45 46 47 48 49 50

000
ASUS43 KLSX 261107
RWRMO

WEATHER SUMMARY FOR MISSOURI
NATIONAL WEATHER SERVICE SPRINGFIELD MO
600 AM CDT FRI MAY 26 2017

NOTE: "FAIR" INDICATES FEW OR NO CLOUDS BELOW 12,000 FEET WITH NO
       SIGNIFICANT WEATHER AND/OR OBSTRUCTIONS TO VISIBILITY.
       CURRENT SKY AND/OR WEATHER CONDITIONS ARE NOT AVAILABLE FOR
       CHILLICOTHE AND FARMINGTON.

MOZ001>031-035>038-043-044-053-054-261200-
...NORTHERN AND WESTERN MISSOURI...

CITY           SKY/WX    TMP DP  RH WIND       PRES   REMARKS
KANSAS CTY INT PTCLDY    62  59  90 NW7       29.66R
KANSAS C DTWN  PTCLDY    65  61  87 W7        29.62R
LEE`S SUMMIT   PTCLDY    66  62  87 S16       29.62R
ST JOSEPH      CLEAR     62  59  90 SW5       29.67R
CHILLICOTHE      N/A     62  59  90 N5        29.65R
KIRKSVILLE     TSTM      60  57  89 S8        29.68F FOG

$$
MOZ066>068-077>081-088>096-101>105-261200-
...SOUTHWEST MISSOURI...

CITY           SKY/WX    TMP DP  RH WIND       PRES   REMARKS
SPRINGFIELD    PTCLDY    67  59  75 SE14      29.72R
JOPLIN         PTCLDY    65  60  84 E9        29.65F
BRANSON        MOCLDY    63  59  88 SE12      29.73S

$$
MOZ032>034-039>042-045>050-055>058-069>072-261200-
...CENTRAL MISSOURI...

CITY           SKY/WX    TMP DP  RH WIND       PRES   REMARKS
COLUMBIA       TSTM      62  58  86 SW6       29.77R
JEFFERSON CITY CLOUDY    65  56  72 E5        29.75R
ROLLA          CLOUDY    64  58  80 S12       29.78R
SEDALIA        CLOUDY    63  61  93 S12       29.67F
WHITEMAN AFB   CLOUDY    62  62 100 S15       29.63S
WARRENSBURG    CLOUDY    63  59  88 SE12      29.62F
OSAGE BEACH    LGT RAIN  62  59  90 VRB6      29.75R

$$
MOZ051-052-059>065-261200-
...EAST CENTRAL MISSOURI...

CITY           SKY/WX    TMP DP  RH WIND       PRES   REMARKS
ST LOUIS INTL  MOCLDY    63  55  75 SE9       29.77S
SPIRIT OF STL  CLEAR     57  55  93 E5        29.75S
ST CHARLES     CLEAR     59  57  93 E7        29.76S

$$
MOZ072>076-082>087-097>100-106>115-261200-
...SOUTH CENTRAL AND SOUTHEAST MISSOURI...

CITY           SKY/WX    TMP DP  RH WIND       PRES   REMARKS
CAPE GIRARDEAU MOCLDY    61  55  81 S7        29.83F
FARMINGTON     PTCLDY    60  56  86 S6        29.81S
POPLAR BLUFF   CLEAR     61  58  90 CALM      29.82S
WEST PLAINS    CLOUDY    63  59  87 S6        29.79F

$$



USA.gov is the U.S. government's official web portal to all federal, state and local government web resources and services.